星链-5763 (STARLINK-5763 )

导读 | 星芒AI

STARLINK-5763 是 SpaceX Starlink 项目中的一颗低轨通信卫星,属于该星座的第五批部署任务。它运行在约 550 公里的近地轨道,旨在为全球提供高速互联网服务。该卫星采用先进的相控阵天线和激光通信技术,以提升连接稳定性和数据传输效率。作为 Starlink 卫星群的一部分,STARLINK-5763 有助于扩大覆盖范围,特别是在偏远和网络基础设施薄弱的地区。其部署推动了 SpaceX 在全球宽带市场的布局。

基本信息
目录编号:
56505
目录名称:
STARLINK-5763
国际标识:
2023-065C
轨道中心:
EARTH
卫星名称:
星链-5763
卫星全名:
星链-5763 (STARLINK-5763 )
卫星状态:
在轨 (已飞行905 天)
发射日期:
2023-05-14 UTC
国别 :
美国 (US)
星等 :
--
轨道信息
数据来源 国际轨道数据 AOE轨道数据
星历时间 2025-11-04T07:54:22+0800
12小时前
查看轨道信息
2025-11-03T16:00:00+0800
1天前
查看轨道信息
半长轴 6937.219km 6937.209km
偏心率 0.0001176 0.0001189
轨道倾角 43.002° 43.003°
近地点辐角 266.755° 265.320°
升交点赤经 173.629° 177.234°
平近点角 93.316° 105.710°
近地点 558.268km 558.249km
远地点 559.9km 559.899km
周期 95.838分钟 95.838分钟
每日圈数 15.025355 15.025385
详细信息
固有亮度:
5
最大亮度:
2.5
卫星平台:
Starlink v1.5
覆盖范围:
全球
运营商:
太空探索技术公司
运营商所在国:
美国
制造商(研发单位):
太空探索技术公司
制造商所在国:
美国
使用方式:
暂无
卫星简介
星链(Starlink)计划是由太空探索技术公司(SpaceX)提出的一个巨型低轨卫星互联网星座项目,计划在2019年至2024年间在太空搭建由约1.2万颗卫星组成的“星链”网络,其中1584颗将部署在地球上空550千米处的近地轨道,并从2020年开始工作。该卫星仍在工作。
2D轨道图
3D轨道图
轨道高度分析图
轨道倾角分析图
轨道综合分析图
查看轨道综合分析图